Regional Weather Roundup
Issued by NWS

Home | Current Version | Previous Version | Text Only | Print | Product List | Glossary Off
Versions: 1 2 3 4 5 6 7 8 9 10 11 12 13 14 15 16 17 18 19 20 21 22 23 24 25 26 27 28 29 30 31 32 33 34 35 36 37 38 39 40 41 42 43 44 45 46 47 48 49 50

047
ASUS43 KFSD 040510
RWRSD

WEATHER ROUNDUP FOR SOUTH DAKOTA
NATIONAL WEATHER SERVICE SIOUX FALLS SD
1100 PM CST SAT DEC 03 2016

NOTE: "FAIR" INDICATES FEW OR NO CLOUDS BELOW 12,000 FEET WITH NO
SIGNIFICANT WEATHER AND/OR OBSTRUCTIONS TO VISIBILITY.


SDZ001>005-009-010-012>017-040600-
NORTHWEST AND NORTH CENTRAL SOUTH DAKOTA

CITY           SKY/WX    TMP DP  RH WIND       PRES   REMARKS
BUFFALO          N/A     29  25  85 W10       29.78R WCI  20
FAITH            N/A     32  29  88 W16       29.85S WCI  21
MOBRIDGE       CLOUDY    32  24  72 S7        29.82F WCI  26
$$

SDZ012>016-024>037-041>051-057-063-072>074-040600-
SOUTHWEST AND SOUTH CENTRAL SOUTH DAKOTA

CITY           SKY/WX    TMP DP  RH WIND       PRES   REMARKS
RAPID CTY ARPT PTCLDY    30  22  72 W6        29.91S WCI  24
PIERRE         CLEAR     28  22  78 W7        29.88S WCI  21
CUSTER         CLEAR     25  18  74 W9        29.88S WCI  15
ELLSWORTH AFB  PTCLDY    28  23  80 W9        29.90R WCI  19
PHILIP         CLOUDY    33  24  69 W12       29.91R WCI  24
PINE RIDGE     PTCLDY    22  18  85 CALM      29.95S
SPEARFISH      MOCLDY    36  23  60 W12       29.89F
WINNER         FAIR      29  22  75 SW8       29.93R WCI  21
$$

SDZ004>011-016>023-039-040-040600-
NORTHEAST SOUTH DAKOTA

CITY           SKY/WX    TMP DP  RH WIND       PRES   REMARKS
ABERDEEN       CLOUDY    33  31  92 S13       29.89F WCI  24
WATERTOWN      CLOUDY    32  32 100 S18G26    29.92F FOG     WCI  20
BROOKINGS      CLOUDY    33  31  92 S13       29.96F WCI  24
SISSETON         N/A     35  32  88 S15       29.92F WCI  25
$$

SDZ017-020-022-023-036>040-048>070-040600-
SOUTHEAST SOUTH DAKOTA

CITY           SKY/WX    TMP DP  RH WIND       PRES   REMARKS
SIOUX FALLS    CLOUDY    34  33  96 S15       30.00F FOG     WCI  24
HURON          CLEAR     33  32  96 S14       29.91F WCI  23
CHAMBERLAIN    CLEAR     26  24  89 S5        29.93R WCI  21
MITCHELL       PTCLDY    35  33  92 S14       29.95S WCI  26
YANKTON        CLOUDY    36  30  80 S12G18    30.01F
$$

ABBREVIATIONS USED IN REMARKS
   TC - TEMPERATURE IN CELSIUS
  WCI - WIND CHILL INDEX
   HX - HEAT INDEX
  VSB - VISIBILITY





USA.gov is the U.S. government's official web portal to all federal, state and local government web resources and services.